Weather reports worldwide

Advertisment
Boulmer, United Kingdom (3240): temperature & dewpoint: 17.05.2019 13:00:00 - 23.05.2019 13:00:00 (BST)Boulmer, United Kingdom (3240): wind speed: 17.05.2019 13:00:00 - 23.05.2019 13:00:00 (BST)Boulmer, United Kingdom (3240): wind direction: 17.05.2019 13:00:00 - 23.05.2019 13:00:00 (BST)Boulmer, United Kingdom (3240): reduced air pressure: 17.05.2019 13:00:00 - 23.05.2019 13:00:00 (BST)Boulmer, United Kingdom (3240): visibility: 17.05.2019 13:00:00 - 23.05.2019 13:00:00 (BST)Boulmer, United Kingdom (3240): sunshine duration: 17.05.2019 13:00:00 - 23.05.2019 13:00:00 (BST)Boulmer, United Kingdom (3240): precipitation: 17.05.2019 13:00:00 - 23.05.2019 13:00:00 (BST)
Date & Time tt [°C] td [°C] ff [km/h] ff [kn] dd ppp [hPa] vv [km] sd [min] rr [mm]
23.05.2019 13:00:00 17,7 6,7 - - - 1012,1 40 60 0,0
23.05.2019 12:00:00 16,5 7,1 - - - 1012,7 10 60 0,0
23.05.2019 11:00:00 15,1 6,5 - - - 1013,2 40 60 0,0
23.05.2019 10:00:00 13,7 6,1 - - - 1013,3 10 60 0,0
23.05.2019 09:00:00 12,2 5,9 - - - 1013,5 30 60 0,0
23.05.2019 08:00:00 10,7 5,3 - - - 1013,5 35 60 0,0
23.05.2019 07:00:00 9,3 4,7 - - - 1013,3 40 60 0,0
23.05.2019 06:00:00 8,1 4,4 - - - 1013,5 10 36 0,0
23.05.2019 05:00:00 7,8 4,1 - - - 1013,6 10 0 0,0
23.05.2019 04:00:00 7,7 3,9 - - - 1013,6 10 0 0,0
23.05.2019 03:00:00 9,0 4,4 - - - 1013,7 10 0 0,0
23.05.2019 02:00:00 9,0 4,4 - - - 1013,9 10 0 0,0
23.05.2019 01:00:00 8,7 4,7 - - - 1014,5 10 - 0,0
23.05.2019 00:00:00 10,3 5,1 - - - 1014,7 40 0 0,0
22.05.2019 23:00:00 11,2 5,3 - - - 1014,9 40 0 0,0
22.05.2019 22:00:00 12,0 5,2 - - - 1014,8 10 0 0,0
22.05.2019 21:00:00 13,4 5,3 - - - 1014,6 10 60 0,0
22.05.2019 20:00:00 15,8 6,5 - - - 1014,3 30 54 0,0
22.05.2019 19:00:00 14,0 9,1 - - - 1014,5 35 18 0,0
22.05.2019 18:00:00 12,5 7,7 - - - 1015,0 10 18 0,0
22.05.2019 17:00:00 13,0 6,9 - - - 1015,3 35 0 0,0
22.05.2019 16:00:00 12,1 7,2 - - - 1015,5 10 0 0,0
22.05.2019 15:00:00 14,2 6,8 - - - 1015,6 10 6 0,0
22.05.2019 14:00:00 14,5 6,4 - - - 1016,0 35 0 0,0
22.05.2019 13:00:00 14,9 5,1 - - - 1016,1 10 24 0,0
22.05.2019 12:00:00 15,0 5,4 - - - 1016,1 40 54 0,0
22.05.2019 11:00:00 14,0 6,3 - - - 1016,4 45 54 0,0
22.05.2019 10:00:00 13,1 5,4 - - - 1016,5 40 60 0,0
22.05.2019 09:00:00 11,3 6,4 - - - 1016,7 10 60 0,0
22.05.2019 08:00:00 10,0 6,3 - - - 1016,7 35 60 0,0
22.05.2019 07:00:00 8,3 5,8 - - - 1016,8 10 54 0,0
22.05.2019 06:00:00 7,2 4,8 - - - 1017,1 40 24 0,0
22.05.2019 05:00:00 7,1 5,3 - - - 1017,2 10 0 0,0
22.05.2019 04:00:00 7,1 5,9 - - - 1017,5 25 0 0,0
22.05.2019 03:00:00 7,9 7,6 - - - 1017,7 10 0 0,0
22.05.2019 02:00:00 6,4 5,9 - - - 1017,8 10 0 0,0
22.05.2019 01:00:00 6,6 6,1 - - - 1017,9 10 - 0,0
22.05.2019 00:00:00 7,8 7,1 - - - 1018,2 16 0 0,0
21.05.2019 23:00:00 - - - - - - - - 0,0
21.05.2019 22:00:00 - - - - - - - - 0,0
21.05.2019 21:00:00 - - - - - - - - 0,0
21.05.2019 20:00:00 - - - - - - - - 0,0
21.05.2019 19:00:00 - - - - - - - - 0,0
21.05.2019 18:00:00 - - - - - - - - 0,0
21.05.2019 17:00:00 - - - - - - - - 0,0
21.05.2019 16:00:00 - - - - - - - - 0,0
21.05.2019 15:00:00 - - - - - - - - 0,0
21.05.2019 14:00:00 - - - - - - - - 0,0
21.05.2019 13:00:00 - - - - - - - - 0,0
21.05.2019 12:00:00 - - - - - - - - 0,0
21.05.2019 11:00:00 - - - - - - - - 0,0
21.05.2019 10:00:00 11,7 9,3 - - - 1017,4 10 6 0,0
21.05.2019 09:00:00 12,1 8,8 21 11 NW 1017,1 30 30 0,0
21.05.2019 08:00:00 12,3 8,8 21 11 WNW 1016,2 35 60 0,0
21.05.2019 07:00:00 10,8 8,2 18 10 WNW 1016,1 30 60 0,0
21.05.2019 06:00:00 9,6 7,4 18 10 W 1015,9 10 24 0,0
21.05.2019 05:00:00 9,2 7,3 16 9 W 1015,6 10 0 0,0
21.05.2019 04:00:00 9,2 7,0 15 8 W 1015,3 10 0 0,0
21.05.2019 03:00:00 9,3 6,9 15 8 W 1015,3 40 0 0,0
21.05.2019 02:00:00 8,6 6,5 11 6 WSW 1015,0 10 0 0,0
21.05.2019 01:00:00 9,7 8,2 13 7 W 1015,0 10 - 0,0
21.05.2019 00:00:00 10,0 7,5 11 6 W 1014,9 35 0 0,0
20.05.2019 23:00:00 11,1 9,3 9 5 W 1014,8 23 0 0,0
20.05.2019 22:00:00 11,6 10,2 9 5 WSW 1014,9 21 0 0,0
20.05.2019 21:00:00 11,8 9,9 5 3 SSW 1014,4 10 12 0,0
20.05.2019 20:00:00 11,2 9,7 8 4 SE 1014,1 15 0 0,0
20.05.2019 19:00:00 12,1 9,9 11 6 SE 1013,9 10 0 0,0
20.05.2019 18:00:00 13,2 9,8 5 3 SE 1013,6 10 0 0,0
20.05.2019 17:00:00 13,3 9,5 5 3 SE 1013,5 27 24 0,0
20.05.2019 16:00:00 12,6 10,0 11 6 ESE 1013,6 10 0 0,0
20.05.2019 15:00:00 12,3 9,8 8 4 E 1013,6 16 0 0,0
20.05.2019 14:00:00 12,3 10,0 9 5 E 1013,5 10 12 0,0
20.05.2019 13:00:00 13,3 9,8 15 8 ENE 1013,2 22 60 0,0
20.05.2019 12:00:00 13,9 9,9 9 5 NE 1012,9 10 36 0,0
20.05.2019 11:00:00 12,0 9,6 9 5 ENE 1013,0 10 0 0,0
20.05.2019 10:00:00 12,2 9,5 8 4 E 1012,9 16 0 0,0
20.05.2019 09:00:00 13,2 10,4 4 2 E 1012,7 10 0 0,0
20.05.2019 08:00:00 12,3 9,4 5 3 WNW 1012,3 10 0 0,0
20.05.2019 07:00:00 11,4 9,7 4 2 E 1011,9 10 0 0,0
20.05.2019 06:00:00 10,6 8,9 8 4 W 1011,6 28 0 0,0
20.05.2019 05:00:00 10,5 8,8 8 4 W 1011,4 10 0 0,0
20.05.2019 04:00:00 10,5 8,8 9 5 W 1011,3 30 0 0,0
20.05.2019 03:00:00 10,3 8,6 9 5 W 1011,3 10 0 0,0
20.05.2019 02:00:00 10,6 8,9 11 6 W 1011,5 26 0 0,0
20.05.2019 01:00:00 10,5 9,7 5 3 W 1011,6 6 - 0,0
20.05.2019 00:00:00 10,5 9,8 2 1 W 1011,8 5 0 0,0
19.05.2019 23:00:00 10,7 9,9 8 4 ENE 1011,9 4,6 0 0,0
19.05.2019 22:00:00 10,7 9,8 2 1 NNW 1011,4 6 0 0,0
19.05.2019 21:00:00 10,8 9,8 4 2 E 1011,1 5 0 0,0
19.05.2019 20:00:00 11,1 9,7 4 2 S 1010,9 8 0 0,0
19.05.2019 19:00:00 11,4 9,7 5 3 ESE 1010,5 9 0 0,0
19.05.2019 18:00:00 11,9 9,9 13 7 SE 1010,5 11 0 0,0
19.05.2019 17:00:00 12,1 9,8 13 7 SE 1010,5 10 0 0,0
19.05.2019 16:00:00 12,2 9,5 11 6 SE 1010,6 10 0 0,0
19.05.2019 15:00:00 12,6 9,8 13 7 SE 1010,4 25 24 0,0
19.05.2019 14:00:00 14,0 10,4 16 9 SE 1010,2 10 18 0,0
19.05.2019 13:00:00 12,5 9,8 13 7 SE 1010,1 23 6 0,0
19.05.2019 12:00:00 13,1 9,9 15 8 E 1009,9 22 60 0,0
19.05.2019 11:00:00 13,0 9,4 11 6 ENE 1009,7 10 60 0,0
19.05.2019 10:00:00 13,1 9,7 9 5 ENE 1009,6 10 60 0,0
19.05.2019 09:00:00 13,0 8,8 8 4 WNW 1009,1 30 60 0,0
19.05.2019 08:00:00 10,9 9,0 9 5 W 1008,8 23 24 0,0
19.05.2019 07:00:00 9,7 9,6 8 4 SW 1008,8 6 0 0,0
19.05.2019 06:00:00 9,4 9,3 2 1 SSW 1008,6 2,7 0 0,2
19.05.2019 05:00:00 9,6 9,4 5 3 SE 1008,3 4,3 0 0,0
19.05.2019 04:00:00 9,8 9,7 4 2 SSE 1008,2 2,5 0 0,0
19.05.2019 03:00:00 9,7 9,5 9 5 S 1008,2 2,6 0 0,0
19.05.2019 02:00:00 9,3 9,0 5 3 SSW 1008,0 3,8 0 0,0
19.05.2019 01:00:00 10,0 9,7 2 1 SW 1008,2 7 - 0,0
19.05.2019 00:00:00 10,1 9,7 8 4 SSW 1008,1 7 0 0,0
18.05.2019 23:00:00 10,4 9,9 8 4 S 1008,3 6 0 0,0
18.05.2019 22:00:00 10,5 9,9 4 2 SE 1008,3 9 0 0,0
18.05.2019 21:00:00 10,6 9,8 2 1 E 1007,9 9 0 0,0
18.05.2019 20:00:00 11,0 10,0 8 4 E 1007,7 14 0 0,0
18.05.2019 19:00:00 10,9 9,7 8 4 E 1007,5 10 0 0,0
18.05.2019 18:00:00 11,4 10,0 9 5 E 1007,4 21 0 0,0
18.05.2019 17:00:00 11,6 9,8 11 6 ESE 1007,4 10 0 0,0
18.05.2019 16:00:00 11,3 9,7 9 5 ESE 1007,4 27 0 0,0
18.05.2019 15:00:00 11,1 9,7 9 5 ESE 1007,4 29 0 0,0
18.05.2019 14:00:00 11,2 9,8 9 5 ESE 1007,4 10 0 0,0
18.05.2019 13:00:00 11,1 10,2 9 5 E 1007,2 10 0 0,0
18.05.2019 12:00:00 10,8 10,0 11 6 E 1007,3 10 0 0,0
18.05.2019 11:00:00 10,7 9,8 11 6 ENE 1007,4 10 0 0,0
18.05.2019 10:00:00 10,7 10,2 5 3 ENE 1007,3 10 0 0,0
18.05.2019 09:00:00 10,2 9,8 8 4 NNE 1007,3 10 0 0,0
18.05.2019 08:00:00 10,1 10,0 8 4 N 1007,3 10 0 0,2
18.05.2019 07:00:00 9,6 9,5 8 4 N 1007,6 3,2 0 0,0
18.05.2019 06:00:00 9,5 9,3 8 4 N 1007,9 3,1 0 0,0
18.05.2019 05:00:00 9,4 9,2 8 4 NNW 1008,2 3,8 0 0,0
18.05.2019 04:00:00 9,2 9,0 5 3 NNW 1008,9 4,4 0 0,0
18.05.2019 03:00:00 9,1 8,9 8 4 N 1009,6 10 0 0,2
18.05.2019 02:00:00 9,2 8,9 9 5 N 1010,2 10 0 0,0
18.05.2019 01:00:00 9,6 9,3 11 6 N 1010,7 6 - 0,0
18.05.2019 00:00:00 9,5 9,2 9 5 N 1011,1 12 0 0,0
17.05.2019 23:00:00 9,3 9,1 9 5 NNE 1011,7 7 0 0,2
17.05.2019 22:00:00 9,2 8,9 15 8 N 1012,2 4,4 0 0,4
17.05.2019 21:00:00 9,4 8,9 15 8 N 1012,5 7 0 0,4
17.05.2019 20:00:00 10,1 8,7 13 7 N 1012,7 10 0 0,0
17.05.2019 19:00:00 10,7 8,6 16 9 N 1012,9 10 0 0,0
17.05.2019 18:00:00 11,5 8,8 18 10 N 1013,2 23 36 0,0
17.05.2019 17:00:00 12,2 9,2 18 10 N 1013,5 10 42 0,0
17.05.2019 16:00:00 12,1 9,4 18 10 N 1013,9 10 36 0,0
17.05.2019 15:00:00 12,4 9,4 16 9 N 1014,4 10 54 0,0
17.05.2019 14:00:00 12,8 9,5 21 11 N 1014,6 22 54 0,0
17.05.2019 13:00:00 13,1 9,0 22 12 N 1015,1 10 54 0,0

tt = temperature
td = dewpoint
ff = wind speed
dd = wind direction
ppp = reduced air pressure
vv = visibility
sd = sunshine duration
rr = precipitation

Next stations